Topeka Forbes, KS

1:41 PM CST on December 11, 2017 (GMT -0600)
Forbes

Weather History for KFOE - July, 2013

Change the Weather History Date:

Tuesday, July 9, 2013

  Actual Average Record
Temperature  
Mean Temperature 90 °F -  
Max Temperature 104 °F 91 °F 104 °F (1980)
Min Temperature 78 °F 70 °F 52 °F (1952)
Cooling Degree Days 25    
Growing Degree Days 40 (Base 50)    
Moisture  
Dew Point 68 °F    
Average Humidity 52    
Maximum Humidity 71    
Minimum Humidity 28    
Precipitation  
Precipitation 0.00 in - - ()
Sea Level Pressure  
Sea Level Pressure 29.89 in    
Wind  
Wind Speed 11 mph (South)    
Max Wind Speed 24 mph    
Max Gust Speed 36 mph    
Visibility 10 miles    
Events      
Averages and records for this station are not official NWS values.
T = Trace of Precipitation, MM = Missing Value Source: NWS Daily Summary

Daily Weather History Graph

Daily Weather History Graph

Search for Another Location

Airport or City:

Trip Planner

Search our weather history database for the weather conditions in past years. The results will help you decide how hot, cold, wet, or windy it might be!

Date:

Astronomy

Jul. 09, 2013 Rise Set
Actual Time 6:05 AM CDT 8:50 PM CDT
Civil Twilight 5:33 AM CDT 9:21 PM CDT
Nautical Twilight 4:54 AM CDT 10:00 PM CDT
Astronomical Twilight 4:09 AM CDT 10:45 PM CDT
Moon 7:29 AM CDT (7/9) 9:29 PM CDT (7/9)
Length of Visible Light 15h 47m
Length of Day
14h 44m
New Moon, 2% of the Moon is Illuminated
Jul 9
New Moon
Jul 15
First Quarter
Jul 22
Full
Jul 29
Last Quarter
Aug 6
New

Hourly Weather History & Observations

Time (CDT) Temp. Heat Index Dew Point Humidity Pressure Visibility Wind Dir Wind Speed Gust Speed Precip Events Conditions
12:53 AM 82.9 °F 85.4 °F 66.9 °F 58% 29.93 in 10.0 mi South 10.4 mph - N/A   Clear
1:53 AM 81.0 °F 83.3 °F 66.9 °F 62% 29.94 in 10.0 mi South 10.4 mph - N/A   Clear
2:53 AM 80.1 °F 82.7 °F 68.0 °F 67% 29.93 in 10.0 mi SSW 9.2 mph - N/A   Clear
3:53 AM 79.0 °F - 68.0 °F 69% 29.93 in 10.0 mi South 10.4 mph - N/A   Clear
4:53 AM 79.0 °F - 68.0 °F 69% 29.94 in 10.0 mi SSW 11.5 mph - N/A   Clear
5:53 AM 79.0 °F - 68.0 °F 69% 29.95 in 10.0 mi SSW 10.4 mph - N/A   Clear
6:53 AM 78.1 °F - 68.0 °F 71% 29.98 in 10.0 mi Calm Calm - N/A   Clear
7:53 AM 80.1 °F 82.9 °F 69.1 °F 69% 29.94 in 10.0 mi SSE 9.2 mph - N/A   Clear
8:53 AM 82.0 °F 85.5 °F 69.1 °F 65% 29.91 in 10.0 mi South 12.7 mph - N/A   Clear
9:53 AM 84.0 °F 87.8 °F 69.1 °F 61% 29.92 in 10.0 mi South 12.7 mph - N/A   Clear
10:53 AM 87.1 °F 92.0 °F 70.0 °F 57% 29.92 in 10.0 mi South 9.2 mph - N/A   Clear
11:53 AM 90.0 °F 96.4 °F 71.1 °F 54% 29.91 in 10.0 mi South 9.2 mph - N/A   Clear
12:53 PM 96.1 °F 101.6 °F 69.1 °F 41% 29.89 in 10.0 mi South 11.5 mph 21.9 mph N/A   Clear
1:53 PM 98.1 °F 104.4 °F 69.1 °F 39% 29.88 in 10.0 mi SSW 11.5 mph 20.7 mph N/A   Clear
2:53 PM 100.9 °F 106.7 °F 68.0 °F 34% 29.86 in 10.0 mi South 13.8 mph 25.3 mph N/A   Clear
3:53 PM 102.9 °F 107.6 °F 66.0 °F 30% 29.85 in 10.0 mi South 16.1 mph 26.5 mph N/A   Clear
4:53 PM 102.9 °F 106.1 °F 64.0 °F 28% 29.83 in 10.0 mi SSW 18.4 mph 28.8 mph N/A   Clear
5:53 PM 99.0 °F 102.3 °F 64.9 °F 33% 29.82 in 10.0 mi SSW 9.2 mph - N/A   Clear
6:53 PM 99.0 °F 106.2 °F 70.0 °F 39% 29.81 in 10.0 mi South 10.4 mph - N/A   Clear
7:53 PM 96.1 °F 101.0 °F 68.0 °F 40% 29.81 in 10.0 mi South 11.5 mph - N/A   Clear
8:53 PM 91.9 °F 95.4 °F 66.9 °F 44% 29.82 in 10.0 mi South 10.4 mph - N/A   Clear
9:53 PM 90.0 °F 92.8 °F 66.9 °F 46% 29.84 in 10.0 mi South 9.2 mph - N/A   Clear
10:53 PM 90.0 °F 92.8 °F 66.9 °F 46% 29.86 in 10.0 mi SSW 12.7 mph - N/A   Clear
11:53 PM 86.0 °F 87.3 °F 64.0 °F 48% 29.93 in 10.0 mi West 24.2 mph 35.7 mph N/A   Partly Cloudy